Regional Weather Roundup
Issued by NWS Memphis, TN

Home | Current Version | Previous Version | Text Only | Print | Product List | Glossary On
Versions: 1 2 3 4 5 6 7 8 9 10 11 12 13 14 15 16 17 18 19 20 21 22 23 24 25 26 27 28 29 30 31 32 33 34 35 36 37 38 39 40 41 42 43 44 45 46 47 48 49 50
000
ASUS44 KMEG 040100
RWRMEG
MEMPHIS CWA HOURLY WEATHER ROUNDUP
NATIONAL WEATHER SERVICE MEMPHIS TN
700 PM CST SAT DEC 03 2016

...WEST TENNESSEE...

CITY           SKY/WX    TMP DP  RH WIND       PRES   REMARKS
MEMPHIS INTL   LGT RAIN  44  42  93 E10       30.19F
NWS MEMPHIS      N/A     42 N/A N/A MISG        N/A
JACKSON        LGT RAIN  42  32  67 NE5       30.25F
BOLIVAR        CLOUDY    43  41  93 NE7       30.23S FOG
DYERSBURG      CLOUDY   N/A N/A N/A E7        30.26S
PARIS          CLOUDY    37  34  87 CALM      30.27S


...EASTERN ARKANSAS...

CITY           SKY/WX    TMP DP  RH WIND       PRES   REMARKS
JONESBORO      LGT RAIN  42  39  89 NE10      30.24S FOG
WEST MEMPHIS   LGT RAIN  43  42  97 E12       30.19F
BATESVILLE     CLOUDY    41  37  87 NE9       30.21F
NEWPORT        LGT RAIN  42  40  92 NE15      30.21F FOG
WALNUT RIDGE   MOCLDY    43  37  81 NE12      30.25F
BLYTHEVILLE    LGT RAIN  43  39  86 NE8       30.27S
SEARCY         LGT RAIN  42  42 100 NE13      30.19F
STUTTGART      CLOUDY    45  39  81 NE16      30.14F
PINE BLUFF     LGT RAIN  46  44  93 E12       30.12F
MONTICELLO     LGT RAIN  46  44  93 E14       30.08F FOG


...NORTH MISSISSIPPI...

CITY           SKY/WX    TMP DP  RH WIND       PRES   REMARKS
TUPELO         LGT RAIN  44  41  89 N7        30.19F
CLARKSDALE     CLOUDY    45  45 100 NE13      30.16S FOG
GREENWOOD      RAIN      46  44  93 E14       30.10F FOG
COLUMBUS       CLOUDY    44  42  92 E9        30.17S
STARKVILLE     LGT RAIN  45  43  93 E8        30.16F
GOLDEN TRIANGL RAIN      45  39  81 E9        30.12F


...SOUTHEAST MISSOURI...

CITY           SKY/WX    TMP DP  RH WIND       PRES   REMARKS
KENNETT        DRIZZLE   43  41  93 NE7       30.27R
WEST PLAINS    LGT RAIN  38  36  92 E9        30.21F WCI  31
POPLAR BLUFF   LGT RAIN  41  38  89 E3        30.27S
CAPE GIRARDEAU CLOUDY    41  33  73 E3        30.28S


...NORTHWEST ALABAMA...

CITY           SKY/WX    TMP DP  RH WIND       PRES   REMARKS
MUSCLE SHOALS  LGT RAIN  44  40  85 NE5       30.24S


...MIDDLE TENNESSEE...

CITY           SKY/WX    TMP DP  RH WIND       PRES   REMARKS
NASHVILLE      LGT RAIN  42  35  76 E6        30.29R
CLARKSVILLE    CLOUDY    41  31  67 NE6       30.29R


...WESTERN KENTUCKY...

CITY           SKY/WX    TMP DP  RH WIND       PRES   REMARKS
PADUCAH        CLOUDY    43  30  60 E5        30.27F
FORT CAMPBELL  CLOUDY    41  33  73 NE6       30.28R


...CENTRAL ARKANSAS...

CITY           SKY/WX    TMP DP  RH WIND       PRES   REMARKS
LITTLE ROCK    LGT RAIN  43  43 100 NE10      30.15F


SKY/WX REPORTED AS FAIR MEANS FEW OR NO CLOUDS BELOW
12 THOUSAND FEET.





USA.gov is the U.S. government's official web portal to all federal, state and local government web resources and services.